SL-16 DEB, 22618

Orbit data source: Space-Track

SL-16 DEB, 22618 is space debris in LEO originally from a launch on Fri, 26 Mar 1993 UTC launched from the Tyuratam Missile And Space Complex (TTMTR). Debris objects in space refer to the collection of defunct objects orbiting the Earth. Examples of debris include non-operational satellites, rocket bodies, and fragments generated from explosions, collisions, or faulty payload assembly.

Loading next visibility...
Identifier
22618, 1993-016AC
Orbit
LEO
Country
Flag of CISCIS
Related business
Manufacturer
Unknown
Mission
Spacecraft
Bus & Motor
Unknown
Mass
Unknown
Launch date (UTC)
1993-03-26 (33 years ago)
Launch vehicle
Unknown
Launch site
Tyuratam Missile And Space Complex (TTMTR)
Object type
Payload
Rocket body
Debris
Shape & HBR
Unknown shape, 0.2 m
Radar Cross Section
Small (<0.1 m²)

Expand to show TLE details & history
Last TLE update: 6 hours ago

TLE from 6 hours ago
0 SL-16 DEB
1 22618U 93016AC  25352.93373956  .00000134  00000-0  14721-3 0  9996
2 22618  70.9934 300.4233 0157135 201.6860 157.7546 13.83466058649551
Epoch: 2025-12-18T22:24Z
TLE epoch observation values (Epoch: 2025-12-18T22:24:35.097Z)
Latitude
0.00008°
Longitude
-123.50505°
Altitude
1,060.855 km
Speed
7.268 km/s
True Right ascension
20h 01m 41s
True Declination
0° 00' 00"
Sunlit
Object was in daylight at epoch
Visualization orbit readout
Latitude
Unknown
Longitude
Unknown
Altitude
Unknown
Speed
Unknown
Apparent Right ascension
Unknown
Apparent Declination
Unknown
Sunlit
N/A
Visualization observer readout
Local Sidereal Time
03:40:27
Azimuth
Unknown
Elevation
Unknown
Doppler factor
Unknown
Orbital elements
Apogee altitude
1,064.719 km
Perigee altitude
834.431 km
Semi-major axis
7,327.712 km
Eccentricity
0.01571
Inclination
70.9934°
RAAN
300.4233°
Arg. of periapsis
201.686°
True anomaly
158.42408°
Mean anomaly
157.7546°
Eccentric anomaly
158.09055°
Mean motion
3.46012 °/min
Orbital period
104.04 mins
BSTAR
0.00014721
Loading maneuver chart data...
Computing Atmospheric mass density...
Loading historical data...
Loading historical data...
Loading historical data...
Loading historical data...
Loading historical data...
Loading historical data...
Loading historical data...

Documentation

Showing up to 5 results
|